PST,Max TemperatureF,Mean TemperatureF,Min TemperatureF,Max Dew PointF,MeanDew PointF,Min DewpointF,Max Humidity, Mean Humidity, Min Humidity, Max Sea Level PressureIn, Mean Sea Level PressureIn, Min Sea Level PressureIn, Max VisibilityMiles, Mean VisibilityMiles, Min VisibilityMiles, Max Wind SpeedMPH, Mean Wind SpeedMPH, Max Gust SpeedMPH,PrecipitationIn, CloudCover, Events, WindDirDegrees
2013-12-1,63,52,42,45,42,38,89,73,48,30.37,30.29,30.25,10,10,7,7,3,,0.00,0,,64
2013-12-2,61,52,43,47,43,39,89,72,52,30.24,30.07,29.90,10,10,8,13,4,,0.00,2,,118
2013-12-3,55,45,35,49,31,20,89,54,25,29.97,29.86,29.81,10,10,10,20,10,30,0.00,3,,294
2013-12-4,48,39,30,22,17,11,69,48,22,30.11,30.05,29.98,10,10,10,13,6,23,0.00,0,,324
2013-12-5,45,36,26,24,18,12,71,52,26,30.19,30.15,30.11,10,10,10,7,4,,0.00,0,,344
2013-12-6,43,36,28,35,28,20,93,73,43,30.24,30.10,29.92,10,8,3,20,7,25,0.33,4,Rain,136
2013-12-7,43,36,28,37,32,21,100,85,43,30.28,30.08,29.92,10,5,0,9,4,,0.00,4,Fog-Rain,151
2013-12-8,41,32,24,27,21,13,92,65,38,30.36,30.32,30.28,10,10,10,10,4,,0.00,0,,311
2013-12-9,63,46,30,29,21,10,73,44,20,30.48,30.41,30.33,10,10,10,16,8,24,0.00,0,,68
2013-12-10,62,46,30,29,25,23,76,52,22,30.47,30.34,30.24,10,10,8,5,2,,0.00,0,,354
2013-12-11,66,50,34,34,29,25,79,57,23,30.30,30.26,30.23,10,9,5,5,1,,0.00,0,,4
2013-12-12,61,46,32,36,30,26,85,59,30,30.31,30.25,30.19,10,9,7,7,2,,0.00,0,,34
2013-12-13,63,50,36,33,30,26,76,53,30,30.35,30.29,30.26,10,10,7,7,2,,0.00,0,,341
2013-12-14,57,46,35,36,34,29,79,66,44,30.46,30.40,30.34,10,10,7,8,2,,0.00,0,,71
2013-12-15,59,46,33,38,33,30,89,67,36,30.41,30.35,30.28,10,9,4,5,0,,0.00,0,,51
2013-12-16,63,50,36,39,36,32,86,67,35,30.29,30.23,30.17,10,10,9,7,2,,0.00,0,,58
2013-12-17,59,48,37,41,38,33,89,73,44,30.23,30.16,30.08,10,9,5,6,1,,0.00,0,,356
2013-12-18,55,47,39,43,39,35,89,76,53,30.05,29.90,29.75,10,9,5,7,3,,0.00,0,,76
2013-12-19,62,50,39,38,25,14,86,42,19,29.99,29.84,29.71,10,10,9,18,7,28,0.00,1,,341
2013-12-20,61,48,36,26,18,12,46,32,15,30.04,29.99,29.95,10,10,10,14,9,24,0.00,0,,328
2013-12-21,57,48,39,35,31,28,79,57,37,30.12,30.05,30.00,10,10,6,7,4,,0.00,0,,53
2013-12-22,63,50,37,38,35,32,82,62,37,30.33,30.25,30.13,10,8,6,7,4,,0.00,0,,93
2013-12-23,60,50,39,41,38,36,86,68,44,30.45,30.39,30.32,10,8,5,7,4,,0.00,0,,356
2013-12-24,69,53,37,41,38,34,93,66,31,30.35,30.29,30.22,10,8,5,10,3,,0.00,0,,18
2013-12-25,61,49,37,41,38,35,89,70,46,30.35,30.30,30.25,10,9,5,6,3,,0.00,0,,38
2013-12-26,62,49,36,39,35,31,86,66,32,30.31,30.26,30.22,10,10,8,6,1,,0.00,0,,2
2013-12-27,55,46,37,39,35,31,86,70,47,30.30,30.23,30.17,10,10,7,7,2,,0.00,0,,26
2013-12-28,68,49,30,33,29,22,89,53,22,30.18,30.13,30.07,10,10,9,15,6,26,0.00,0,,325
2013-12-29,61,49,37,35,30,22,76,50,32,30.23,30.18,30.12,10,9,5,12,6,,0.00,0,,106
2013-12-30,60,48,36,37,35,31,89,64,39,30.30,30.26,30.23,10,10,8,5,2,,0.00,0,,33
2013-12-31,61,50,39,39,34,31,82,63,32,30.31,30.23,30.19,10,10,8,6,1,,0.00,0,,313